Location: Great Malvern
(52.1167°N, 2.3167°W)
Time: 06:09:19
(UTC+00:00)

ATLAS 3B R/B - Pass Details

Date: 18 September 2020
Orbit: 1016 x 1179 km, 63.8° (Epoch: 04 October)

Event Time Altitude Azimuth Distance (km) Brightness Sun altitude
Rises 21:19:31 0° 314° (NW) 3,816 6.9 -26.4°
Reaches altitude 10° 21:22:06 10° 315° (NW) 2,879 6.0 -26.7°
Maximum altitude 21:28:57 88° 46° (NE) 1,091 2.6 -27.4°
Enters shadow 21:30:03 66° 130° (SE) 1,178 2.6 -27.5°
